Regional Weather Roundup
Issued by NWS

Home | Current Version | Previous Version | Text Only | Print | Product List | Glossary Off
Versions: 1 2 3 4 5 6 7 8 9 10 11 12 13 14 15 16 17 18 19 20 21 22 23 24 25 26 27 28 29 30 31 32 33 34 35 36 37 38 39 40 41 42 43 44 45 46 47 48 49 50

746
ASUS43 KBIS 281410
RWRND

NORTH DAKOTA REGIONAL WEATHER ROUNDUP
NATIONAL WEATHER SERVICE BISMARCK ND
900 AM CDT THU JUL 28 2016

NOTE: "FAIR" INDICATES FEW OR NO CLOUDS BELOW 12,000 FEET WITH NO
SIGNIFICANT WEATHER AND/OR OBSTRUCTIONS TO VISIBILITY.


NDZ001>003-009>011-017-281500-
NORTHWEST NORTH DAKOTA

CITY           SKY/WX    TMP DP  RH WIND       PRES   REMARKS
WILLISTON      SUNNY     65  59  81 NE6       30.18R
MINOT          CLOUDY    67  55  65 E5        30.17R
MINOT AFB      CLOUDY    64  57  77 SE5       30.17R
$$

NDZ018>021-031>035-040>046-281500-
SOUTHWEST NORTH DAKOTA

CITY           SKY/WX    TMP DP  RH WIND       PRES   REMARKS
BISMARCK       CLOUDY    64  58  80 E6        30.16R
DICKINSON      CLOUDY    59  58  96 E12       30.14S
GARRISON         N/A     62  58  86 E6        30.16S
HETTINGER ARPT CLOUDY    65  60  84 E6        30.15S
$$

NDZ004>008-012>016-024-026-027-054-281500-
NORTHEAST NORTH DAKOTA

CITY           SKY/WX    TMP DP  RH WIND       PRES   REMARKS
GRAND FORKS    MOSUNNY   66  57  72 NE8       30.12S
GRND FRKS AFB  SUNNY     64  56  76 NE8       30.13S
DEVILS LAKE    CLOUDY    63  55  77 NE8       30.17S
$$

NDZ022-023-025-028>030-036>039-047>053-281500-
SOUTHEAST NORTH DAKOTA

CITY           SKY/WX    TMP DP  RH WIND       PRES   REMARKS
FARGO          MOSUNNY   68  62  81 N3        30.08S
JAMESTOWN      MOSUNNY   63  59  87 N7        30.13R
$$





USA.gov is the U.S. government's official web portal to all federal, state and local government web resources and services.